Year,Month,Day,Hour,Minute,Value (Times are PST for temperature in C)
2008,05,24,00,00,10.10
2008,05,24,00,01,10.10
2008,05,24,00,02,10.10
2008,05,24,00,03,10.10
2008,05,24,00,04,10.10
2008,05,24,00,05,10.10
2008,05,24,00,06,10.10
2008,05,24,00,07,10.10
2008,05,24,00,08,10.10
2008,05,24,00,09,10.20
2008,05,24,00,10,10.20
2008,05,24,00,11,10.20
2008,05,24,00,12,10.20
2008,05,24,00,13,10.20
2008,05,24,01,02,9.80
2008,05,24,01,03,9.80
2008,05,24,01,04,9.80
2008,05,24,01,05,9.80
2008,05,24,01,06,9.80
2008,05,24,01,07,9.80
2008,05,24,01,08,9.80
2008,05,24,01,09,9.80
2008,05,24,01,10,9.80
2008,05,24,01,11,9.80
2008,05,24,01,12,9.90
2008,05,24,01,13,9.90
2008,05,24,01,14,9.90
2008,05,24,01,15,9.90
2008,05,24,01,16,9.90
2008,05,24,01,17,9.90
2008,05,24,01,18,9.90
2008,05,24,01,19,9.90
2008,05,24,01,20,9.90
2008,05,24,01,21,9.90
2008,05,24,01,22,9.80
2008,05,24,01,23,9.80
2008,05,24,01,24,9.80
2008,05,24,01,25,9.80
2008,05,24,01,26,9.80
2008,05,24,01,27,9.80
2008,05,24,01,28,9.80
2008,05,24,01,29,9.80
2008,05,24,01,30,9.80
2008,05,24,01,31,9.80
2008,05,24,01,32,9.80
2008,05,24,01,33,9.80
2008,05,24,01,34,9.70
2008,05,24,01,35,9.70
2008,05,24,01,36,9.70
2008,05,24,01,37,9.60
2008,05,24,01,38,9.60
2008,05,24,01,39,9.60
2008,05,24,01,40,9.50
2008,05,24,01,41,9.50
2008,05,24,01,42,9.40
2008,05,24,01,43,9.40
2008,05,24,01,44,9.40
2008,05,24,01,45,9.40
2008,05,24,01,46,9.40
2008,05,24,01,47,9.50
2008,05,24,01,48,9.50
2008,05,24,01,49,9.50
2008,05,24,01,50,9.60
2008,05,24,01,51,9.60
2008,05,24,01,52,9.60
2008,05,24,01,53,9.60
2008,05,24,01,54,9.70
2008,05,24,01,55,9.70
2008,05,24,01,56,9.70
2008,05,24,01,57,9.70
2008,05,24,01,58,9.70
2008,05,24,01,59,9.70
2008,05,24,02,00,9.70
2008,05,24,02,01,9.70
2008,05,24,02,02,9.60
2008,05,24,02,03,9.60
2008,05,24,02,04,9.60
2008,05,24,02,05,9.50
2008,05,24,02,06,9.50
2008,05,24,02,07,9.50
2008,05,24,02,08,9.40
2008,05,24,02,09,9.40
2008,05,24,02,10,9.40
2008,05,24,02,11,9.40
2008,05,24,02,12,9.40
2008,05,24,02,13,9.40
2008,05,24,02,14,9.40
2008,05,24,02,15,9.40
2008,05,24,02,16,9.40
2008,05,24,02,17,9.40
2008,05,24,02,18,9.40
2008,05,24,02,19,9.40
2008,05,24,02,20,9.40
2008,05,24,02,21,9.40
2008,05,24,02,22,9.40
2008,05,24,02,23,9.30
2008,05,24,02,24,9.30
2008,05,24,02,25,9.40
2008,05,24,02,26,9.40
2008,05,24,02,27,9.40
2008,05,24,02,28,9.40
2008,05,24,02,29,9.40
2008,05,24,02,30,9.40
2008,05,24,02,31,9.40
2008,05,24,02,32,9.40
2008,05,24,02,33,9.40
2008,05,24,02,34,9.40
2008,05,24,02,35,9.40
2008,05,24,02,36,9.40
2008,05,24,02,37,9.40
2008,05,24,02,38,9.40
2008,05,24,02,39,9.40
2008,05,24,02,40,9.40
2008,05,24,02,41,9.40
2008,05,24,02,42,9.40
2008,05,24,02,43,9.40
2008,05,24,02,44,9.40
2008,05,24,02,45,9.40
2008,05,24,02,46,9.40
2008,05,24,02,47,9.50
2008,05,24,02,48,9.50
2008,05,24,02,49,9.50
2008,05,24,02,50,9.50
2008,05,24,02,51,9.50
2008,05,24,02,52,9.50
2008,05,24,02,53,9.60
2008,05,24,02,54,9.60
2008,05,24,02,55,9.60
2008,05,24,02,56,9.60
2008,05,24,02,57,9.60
2008,05,24,02,58,9.50
2008,05,24,02,59,9.60
2008,05,24,03,00,9.60
2008,05,24,03,01,9.60
2008,05,24,03,02,9.60
2008,05,24,03,03,9.60
2008,05,24,03,04,9.60
2008,05,24,03,05,9.60
2008,05,24,03,06,9.60
2008,05,24,03,07,9.60
2008,05,24,03,08,9.60
2008,05,24,03,09,9.60
2008,05,24,03,10,9.60
2008,05,24,03,11,9.60
2008,05,24,03,12,9.50
2008,05,24,03,13,9.50
2008,05,24,03,14,9.40
2008,05,24,03,15,9.40
2008,05,24,03,16,9.40
2008,05,24,03,17,9.40
2008,05,24,03,18,9.40
2008,05,24,03,19,9.40
2008,05,24,03,20,9.40
2008,05,24,03,21,9.40
2008,05,24,03,22,9.40
2008,05,24,03,23,9.40
2008,05,24,03,24,9.50
2008,05,24,03,25,9.50
2008,05,24,03,26,9.50
2008,05,24,03,27,9.60
2008,05,24,03,28,9.60
2008,05,24,03,29,9.60
2008,05,24,03,30,9.60
2008,05,24,03,31,9.60
2008,05,24,03,32,9.60
2008,05,24,03,33,9.60
2008,05,24,03,34,9.60
2008,05,24,03,35,9.60
2008,05,24,03,36,9.60
2008,05,24,03,37,9.60
2008,05,24,03,38,9.60
2008,05,24,03,39,9.60
2008,05,24,03,40,9.60
2008,05,24,03,41,9.50
2008,05,24,03,42,9.50
2008,05,24,03,43,9.50
2008,05,24,03,44,9.50
2008,05,24,03,45,9.50
2008,05,24,03,46,9.40
2008,05,24,03,47,9.40
2008,05,24,03,48,9.40
2008,05,24,03,49,9.40
2008,05,24,03,50,9.40
2008,05,24,03,51,9.40
2008,05,24,03,52,9.40
2008,05,24,03,53,9.40
2008,05,24,03,54,9.40
2008,05,24,03,55,9.40
2008,05,24,03,56,9.40
2008,05,24,03,57,9.40
2008,05,24,03,58,9.40
2008,05,24,03,59,9.40
2008,05,24,04,00,9.40
2008,05,24,04,01,9.30
2008,05,24,04,02,9.30
2008,05,24,04,03,9.30
2008,05,24,04,04,9.30
2008,05,24,04,05,9.30
2008,05,24,04,06,9.30
2008,05,24,04,07,9.30
2008,05,24,04,08,9.30
2008,05,24,04,09,9.30
2008,05,24,04,10,9.30
2008,05,24,04,11,9.30
2008,05,24,04,12,9.30
2008,05,24,04,13,9.30
2008,05,24,04,14,9.30
2008,05,24,04,15,9.30
2008,05,24,04,16,9.30
2008,05,24,04,17,9.30
2008,05,24,04,18,9.30
2008,05,24,04,19,9.30
2008,05,24,04,20,9.30
2008,05,24,04,21,9.30
2008,05,24,04,22,9.30
2008,05,24,04,23,9.30
2008,05,24,04,24,9.30
2008,05,24,04,25,9.30
2008,05,24,04,26,9.30
2008,05,24,04,27,9.30
2008,05,24,04,28,9.30
2008,05,24,04,29,9.30
2008,05,24,04,30,9.30
2008,05,24,04,31,9.30
2008,05,24,04,32,9.30
2008,05,24,04,33,9.30
2008,05,24,04,34,9.30
2008,05,24,04,35,9.30
2008,05,24,04,36,9.20
2008,05,24,04,37,9.30
2008,05,24,04,38,9.30
2008,05,24,04,39,9.30
2008,05,24,04,40,9.30
2008,05,24,04,41,9.30
2008,05,24,04,42,9.20
2008,05,24,04,43,9.20
2008,05,24,04,44,9.20
2008,05,24,04,45,9.20
2008,05,24,04,46,9.20
2008,05,24,04,47,9.20
2008,05,24,04,48,9.20
2008,05,24,04,49,9.20
2008,05,24,04,50,9.20
2008,05,24,04,51,9.20
2008,05,24,04,52,9.20
2008,05,24,04,53,9.20
2008,05,24,04,54,9.20
2008,05,24,04,55,9.20
2008,05,24,04,56,9.20
2008,05,24,04,57,9.20
2008,05,24,04,58,9.20
2008,05,24,04,59,9.20
2008,05,24,05,00,9.20
2008,05,24,05,01,9.20
2008,05,24,05,02,9.20
2008,05,24,05,03,9.20
2008,05,24,05,04,9.20
2008,05,24,05,05,9.20
2008,05,24,05,06,9.20
2008,05,24,05,07,9.20
2008,05,24,05,08,9.20
2008,05,24,05,09,9.20
2008,05,24,05,10,9.20
2008,05,24,05,11,9.20
2008,05,24,05,12,9.20
2008,05,24,05,13,9.20
2008,05,24,05,14,9.20
2008,05,24,05,15,9.20
2008,05,24,05,16,9.20
2008,05,24,05,17,9.20
2008,05,24,05,18,9.20
2008,05,24,05,19,9.20
2008,05,24,05,20,9.20
2008,05,24,05,21,9.20
2008,05,24,05,22,9.20
2008,05,24,05,23,9.20
2008,05,24,05,24,9.20
2008,05,24,05,25,9.20
2008,05,24,05,26,9.20
2008,05,24,05,27,9.20
2008,05,24,05,28,9.20
2008,05,24,05,29,9.20
2008,05,24,05,30,9.20
2008,05,24,05,31,9.20
2008,05,24,05,32,9.20
2008,05,24,05,33,9.20
2008,05,24,05,34,9.20
2008,05,24,05,35,9.10
2008,05,24,05,36,9.10
2008,05,24,05,37,9.10
2008,05,24,05,38,9.10
2008,05,24,05,39,9.10
2008,05,24,05,40,9.10
2008,05,24,05,41,9.10
2008,05,24,05,42,9.10
2008,05,24,05,43,9.10
2008,05,24,05,44,9.10
2008,05,24,05,45,9.10
2008,05,24,05,46,9.10
2008,05,24,05,47,9.10
2008,05,24,05,48,9.10
2008,05,24,05,49,9.10
2008,05,24,05,50,9.10
2008,05,24,05,51,9.10
2008,05,24,05,52,9.10
2008,05,24,05,53,9.10
2008,05,24,05,54,9.10
2008,05,24,05,55,9.10
2008,05,24,05,56,9.10
2008,05,24,05,57,9.10
2008,05,24,05,58,9.10
2008,05,24,05,59,9.10
2008,05,24,06,00,9.10
2008,05,24,06,01,9.10
2008,05,24,06,02,9.10
2008,05,24,06,03,9.10
2008,05,24,06,04,9.10
2008,05,24,06,05,9.10
2008,05,24,06,06,9.10
2008,05,24,06,07,9.10
2008,05,24,06,08,9.10
2008,05,24,06,09,9.10
2008,05,24,06,10,9.10
2008,05,24,06,11,9.10
2008,05,24,06,12,9.10
2008,05,24,06,13,9.20
2008,05,24,06,14,9.10
2008,05,24,06,15,9.20
2008,05,24,06,16,9.20
2008,05,24,06,17,9.20
2008,05,24,06,18,9.20
2008,05,24,06,19,9.10
2008,05,24,06,20,9.20
2008,05,24,06,21,9.10
2008,05,24,06,22,9.10
2008,05,24,06,23,9.10
2008,05,24,06,24,9.10
2008,05,24,06,25,9.10
2008,05,24,06,26,9.10
2008,05,24,06,27,9.10
2008,05,24,06,28,9.10
2008,05,24,06,29,9.10
2008,05,24,06,30,9.10
2008,05,24,06,31,9.10
2008,05,24,06,32,9.10
2008,05,24,06,33,9.10
2008,05,24,06,34,9.10
2008,05,24,06,35,9.10
2008,05,24,06,36,9.10
2008,05,24,06,37,9.10
2008,05,24,06,38,9.10
2008,05,24,06,39,9.10
2008,05,24,06,40,9.10
2008,05,24,06,41,9.10
2008,05,24,06,42,9.10
2008,05,24,06,43,9.20
2008,05,24,06,44,9.20
2008,05,24,06,45,9.20
2008,05,24,06,46,9.30
2008,05,24,06,47,9.40
2008,05,24,06,48,9.40
2008,05,24,06,49,9.50
2008,05,24,06,50,9.60
2008,05,24,06,51,9.60
2008,05,24,06,52,9.70
2008,05,24,06,53,9.70
2008,05,24,06,54,9.80
2008,05,24,06,55,9.80
2008,05,24,06,56,9.90
2008,05,24,06,57,9.90
2008,05,24,06,58,10.00
2008,05,24,06,59,10.10
2008,05,24,07,00,10.10
2008,05,24,07,01,10.20
2008,05,24,07,02,10.20
2008,05,24,07,03,10.30
2008,05,24,07,04,10.30
2008,05,24,07,05,10.40
2008,05,24,07,06,10.50
2008,05,24,07,07,10.60
2008,05,24,07,08,10.60
2008,05,24,07,09,10.70
2008,05,24,07,10,10.70
2008,05,24,07,11,10.80
2008,05,24,07,12,10.80
2008,05,24,07,13,10.90
2008,05,24,07,14,10.90
2008,05,24,07,15,11.00
2008,05,24,07,16,11.00
2008,05,24,07,17,11.10
2008,05,24,07,18,11.10
2008,05,24,07,19,11.10
2008,05,24,07,20,11.10
2008,05,24,07,21,11.20
2008,05,24,07,22,11.20
2008,05,24,07,23,11.20
2008,05,24,07,24,11.20
2008,05,24,07,25,11.30
2008,05,24,07,26,11.30
2008,05,24,07,27,11.30
2008,05,24,07,28,11.30
2008,05,24,07,29,11.30
2008,05,24,07,30,11.30
2008,05,24,07,31,11.30
2008,05,24,07,32,11.40
2008,05,24,07,33,11.40
2008,05,24,07,34,11.40
2008,05,24,07,35,11.30
2008,05,24,07,36,11.30
2008,05,24,07,37,11.30
2008,05,24,07,38,11.20
2008,05,24,07,39,11.20
2008,05,24,07,40,11.20
2008,05,24,07,41,11.20
2008,05,24,07,42,11.20
2008,05,24,07,43,11.10
2008,05,24,07,44,11.10
2008,05,24,07,45,11.10
2008,05,24,07,46,11.10
2008,05,24,07,47,11.00
2008,05,24,07,48,11.00
2008,05,24,07,49,11.00
2008,05,24,07,50,10.90
2008,05,24,07,51,11.00
2008,05,24,07,52,11.00
2008,05,24,07,53,11.00
2008,05,24,07,54,11.00
2008,05,24,07,55,11.00
2008,05,24,07,56,11.10
2008,05,24,07,57,11.10
2008,05,24,07,58,11.10
2008,05,24,07,59,11.20
2008,05,24,08,00,11.20
2008,05,24,08,01,11.20
2008,05,24,08,02,11.20
2008,05,24,08,03,11.20
2008,05,24,08,04,11.30
2008,05,24,08,05,11.30
2008,05,24,08,06,11.30
2008,05,24,08,07,11.30
2008,05,24,08,08,11.40
2008,05,24,08,09,11.40
2008,05,24,08,10,11.50
2008,05,24,08,11,11.50
2008,05,24,08,12,11.50
2008,05,24,08,13,11.60
2008,05,24,08,14,11.60
2008,05,24,08,15,11.60
2008,05,24,08,16,11.60
2008,05,24,08,17,11.60
2008,05,24,08,18,11.60
2008,05,24,08,19,11.60
2008,05,24,08,20,11.60
2008,05,24,08,21,11.60
2008,05,24,08,22,11.60
2008,05,24,08,23,11.60
2008,05,24,08,24,11.60
2008,05,24,08,25,11.70
2008,05,24,08,26,11.70
2008,05,24,08,27,11.70
2008,05,24,08,28,11.80
2008,05,24,08,29,11.80
2008,05,24,08,30,11.80
2008,05,24,08,31,11.80
2008,05,24,08,32,11.80
2008,05,24,08,33,11.80
2008,05,24,08,34,11.90
2008,05,24,08,35,11.90
2008,05,24,08,36,11.90
2008,05,24,08,37,11.90
2008,05,24,08,38,12.00
2008,05,24,08,39,12.00
2008,05,24,08,40,11.90
2008,05,24,08,41,11.90
2008,05,24,08,42,11.90
2008,05,24,08,43,11.90
2008,05,24,08,44,11.90
2008,05,24,08,45,11.90
2008,05,24,08,46,11.90
2008,05,24,08,47,11.90
2008,05,24,08,48,11.90
2008,05,24,08,49,11.90
2008,05,24,08,50,12.00
2008,05,24,08,51,12.00
2008,05,24,08,52,12.00
2008,05,24,08,53,12.10
2008,05,24,08,54,12.10
2008,05,24,08,55,12.10
2008,05,24,08,56,12.10
2008,05,24,08,57,12.20
2008,05,24,08,58,12.20
2008,05,24,08,59,12.20
2008,05,24,09,00,12.20
2008,05,24,09,01,12.20
2008,05,24,09,02,12.20
2008,05,24,09,03,12.20
2008,05,24,09,04,12.20
2008,05,24,09,05,12.30
2008,05,24,09,06,12.30
2008,05,24,09,07,12.30
2008,05,24,09,08,12.30
2008,05,24,09,09,12.40
2008,05,24,09,10,12.40
2008,05,24,09,11,12.40
2008,05,24,09,12,12.40
2008,05,24,09,13,12.50
2008,05,24,09,14,12.50
2008,05,24,09,15,12.50
2008,05,24,09,16,12.50
2008,05,24,09,17,12.50
2008,05,24,09,18,12.60
2008,05,24,09,19,12.60
2008,05,24,09,20,12.60
2008,05,24,09,21,12.70
2008,05,24,09,22,12.70
2008,05,24,09,23,12.70
2008,05,24,09,24,12.80
2008,05,24,09,25,12.80
2008,05,24,09,26,12.90
2008,05,24,09,27,12.90
2008,05,24,09,28,13.00
2008,05,24,09,29,13.10
2008,05,24,09,30,13.10
2008,05,24,09,31,13.20
2008,05,24,09,32,13.20
2008,05,24,09,33,13.30
2008,05,24,09,34,13.40
2008,05,24,09,35,13.40
2008,05,24,09,36,13.50
2008,05,24,09,37,13.50
2008,05,24,09,38,13.60
2008,05,24,09,39,13.60
2008,05,24,09,40,13.60
2008,05,24,09,41,13.70
2008,05,24,09,42,13.70
2008,05,24,09,43,13.80
2008,05,24,09,44,13.80
2008,05,24,09,45,13.90
2008,05,24,09,46,14.00
2008,05,24,09,47,14.00
2008,05,24,09,48,14.10
2008,05,24,09,49,14.10
2008,05,24,09,50,14.10
2008,05,24,09,51,14.20
2008,05,24,09,52,14.20
2008,05,24,09,53,14.20
2008,05,24,09,54,14.20
2008,05,24,09,55,14.30
2008,05,24,09,56,14.20
2008,05,24,09,57,14.20
2008,05,24,09,58,14.20
2008,05,24,09,59,14.10
2008,05,24,10,00,14.10
2008,05,24,10,01,14.10
2008,05,24,10,02,14.10
2008,05,24,10,03,14.10
2008,05,24,10,04,14.10
2008,05,24,10,05,14.10
2008,05,24,10,06,14.10
2008,05,24,10,07,14.10
2008,05,24,10,08,14.10
2008,05,24,10,09,14.10
2008,05,24,10,10,14.20
2008,05,24,10,11,14.20
2008,05,24,10,12,14.30
2008,05,24,10,13,14.30
2008,05,24,10,14,14.30
2008,05,24,10,15,14.30
2008,05,24,10,16,14.30
2008,05,24,10,17,14.40
2008,05,24,10,18,14.40
2008,05,24,10,19,14.40
2008,05,24,10,20,14.40
2008,05,24,10,21,14.40
2008,05,24,10,22,14.40
2008,05,24,10,23,14.40
2008,05,24,10,24,14.30
2008,05,24,10,25,14.30
2008,05,24,10,26,14.30
2008,05,24,10,27,14.20
2008,05,24,10,28,14.20
2008,05,24,10,29,14.20
2008,05,24,10,30,14.20
2008,05,24,10,31,14.20
2008,05,24,10,32,14.20
2008,05,24,10,33,14.20
2008,05,24,10,34,14.20
2008,05,24,10,35,14.20
2008,05,24,10,36,14.20
2008,05,24,10,37,14.20
2008,05,24,10,38,14.20
2008,05,24,10,39,14.20
2008,05,24,10,40,14.20
2008,05,24,10,41,14.20
2008,05,24,10,42,14.20
2008,05,24,10,43,14.20
2008,05,24,10,44,14.20
2008,05,24,10,45,14.10
2008,05,24,10,46,14.10
2008,05,24,10,47,14.00
2008,05,24,10,48,13.90
2008,05,24,10,49,13.90
2008,05,24,10,50,13.80
2008,05,24,10,51,13.80
2008,05,24,10,52,13.70
2008,05,24,10,53,13.70
2008,05,24,10,54,13.70
2008,05,24,10,55,13.70
2008,05,24,10,56,13.70
2008,05,24,10,57,13.70
2008,05,24,10,58,13.70
2008,05,24,10,59,13.80
2008,05,24,11,00,13.80
2008,05,24,11,01,13.80
2008,05,24,11,02,13.90
2008,05,24,11,03,13.90
2008,05,24,11,04,14.00
2008,05,24,11,05,14.00
2008,05,24,11,06,14.10
2008,05,24,11,07,14.10
2008,05,24,11,08,14.10
2008,05,24,11,09,14.20
2008,05,24,11,10,14.20
2008,05,24,11,11,14.20
2008,05,24,11,12,14.30
2008,05,24,11,13,14.30
2008,05,24,11,14,14.40
2008,05,24,11,15,14.40
2008,05,24,11,16,14.40
2008,05,24,11,17,14.40
2008,05,24,11,18,14.50
2008,05,24,11,19,14.50
2008,05,24,11,20,14.50
2008,05,24,11,21,14.50
2008,05,24,11,22,14.60
2008,05,24,11,23,14.60
2008,05,24,11,24,14.60
2008,05,24,11,25,14.50
2008,05,24,11,26,14.50
2008,05,24,11,27,14.50
2008,05,24,11,28,14.50
2008,05,24,11,29,14.40
2008,05,24,11,30,14.40
2008,05,24,11,31,14.40
2008,05,24,11,32,14.40
2008,05,24,11,33,14.40
2008,05,24,11,34,14.40
2008,05,24,11,35,14.40
2008,05,24,11,36,14.40
2008,05,24,11,37,14.40
2008,05,24,11,38,14.40
2008,05,24,11,39,14.40
2008,05,24,11,40,14.40
2008,05,24,11,41,14.40
2008,05,24,11,42,14.50
2008,05,24,11,43,14.50
2008,05,24,11,44,14.40
2008,05,24,11,45,14.40
2008,05,24,11,46,14.50
2008,05,24,11,47,14.50
2008,05,24,11,48,14.50
2008,05,24,11,49,14.40
2008,05,24,11,50,14.50
2008,05,24,11,51,14.50
2008,05,24,11,52,14.50
2008,05,24,11,53,14.60
2008,05,24,11,54,14.70
2008,05,24,11,55,14.70
2008,05,24,11,56,14.80
2008,05,24,11,57,14.90
2008,05,24,11,58,15.00
2008,05,24,11,59,15.00
2008,05,24,12,00,15.10
2008,05,24,12,01,15.30
2008,05,24,12,02,15.40
2008,05,24,12,03,15.50
2008,05,24,12,04,15.60
2008,05,24,12,05,15.60
2008,05,24,12,06,15.70
2008,05,24,12,07,15.80
2008,05,24,12,08,15.80
2008,05,24,12,09,15.90
2008,05,24,12,10,16.00
2008,05,24,12,11,16.10
2008,05,24,12,12,16.20
2008,05,24,12,13,16.40
2008,05,24,12,14,16.50
2008,05,24,12,15,16.70
2008,05,24,12,16,16.80
2008,05,24,12,17,16.90
2008,05,24,12,18,17.00
2008,05,24,12,19,17.10
2008,05,24,12,20,17.10
2008,05,24,12,21,17.10
2008,05,24,12,22,17.10
2008,05,24,12,23,17.10
2008,05,24,12,24,17.10
2008,05,24,12,25,17.20
2008,05,24,12,26,17.10
2008,05,24,12,27,17.10
2008,05,24,12,28,17.20
2008,05,24,12,29,17.20
2008,05,24,12,30,17.20
2008,05,24,12,31,17.30
2008,05,24,12,32,17.30
2008,05,24,12,33,17.30
2008,05,24,12,34,17.30
2008,05,24,12,35,17.30
2008,05,24,12,36,17.30
2008,05,24,12,37,17.30
2008,05,24,12,38,17.40
2008,05,24,12,39,17.40
2008,05,24,12,40,17.40
2008,05,24,12,41,17.50
2008,05,24,12,42,17.50
2008,05,24,12,43,17.60
2008,05,24,12,44,17.70
2008,05,24,12,45,17.80
2008,05,24,12,46,17.90
2008,05,24,12,47,18.00
2008,05,24,12,48,18.10
2008,05,24,12,49,18.30
2008,05,24,12,50,18.40
2008,05,24,12,51,18.60
2008,05,24,12,52,18.70
2008,05,24,12,53,18.70
2008,05,24,12,54,18.80
2008,05,24,12,55,18.90
2008,05,24,12,56,18.90
2008,05,24,12,57,18.90
2008,05,24,12,58,18.90
2008,05,24,12,59,18.90
2008,05,24,13,00,18.80
2008,05,24,13,01,18.70
2008,05,24,13,02,18.60
2008,05,24,13,03,18.50
2008,05,24,13,04,18.40
2008,05,24,13,05,18.40
2008,05,24,13,06,18.30
2008,05,24,13,07,18.30
2008,05,24,13,08,18.20
2008,05,24,13,09,18.20
2008,05,24,13,10,18.10
2008,05,24,13,11,18.10
2008,05,24,13,12,18.10
2008,05,24,13,13,18.10
2008,05,24,13,14,18.00
2008,05,24,13,15,17.90
2008,05,24,13,16,17.80
2008,05,24,13,17,17.70
2008,05,24,13,18,17.50
2008,05,24,13,19,17.40
2008,05,24,13,20,17.30
2008,05,24,13,21,17.20
2008,05,24,13,22,17.20
2008,05,24,13,23,17.20
2008,05,24,13,24,17.20
2008,05,24,13,25,17.20
2008,05,24,13,26,17.30
2008,05,24,13,27,17.40
2008,05,24,13,28,17.60
2008,05,24,13,29,17.80
2008,05,24,13,30,18.10
2008,05,24,13,31,18.20
2008,05,24,13,32,18.40
2008,05,24,13,33,18.50
2008,05,24,13,34,18.70
2008,05,24,13,35,18.90
2008,05,24,13,36,19.10
2008,05,24,13,37,19.30
2008,05,24,13,38,19.50
2008,05,24,13,39,19.70
2008,05,24,13,40,19.90
2008,05,24,13,41,20.10
2008,05,24,13,42,20.30
2008,05,24,13,43,20.50
2008,05,24,13,44,20.60
2008,05,24,13,45,20.70
2008,05,24,13,46,20.90
2008,05,24,13,47,21.00
2008,05,24,13,48,21.10
2008,05,24,13,49,21.30
2008,05,24,13,50,21.40
2008,05,24,13,51,21.50
2008,05,24,13,52,21.70
2008,05,24,13,53,21.80
2008,05,24,13,54,21.80
2008,05,24,13,55,21.80
2008,05,24,13,56,21.70
2008,05,24,13,57,21.70
2008,05,24,13,58,21.70
2008,05,24,13,59,21.70
2008,05,24,14,00,21.70
2008,05,24,14,01,21.70
2008,05,24,14,02,21.70
2008,05,24,14,03,21.70
2008,05,24,14,04,21.70
2008,05,24,14,05,21.70
2008,05,24,14,06,21.60
2008,05,24,14,07,21.50
2008,05,24,14,08,21.40
2008,05,24,14,09,21.30
2008,05,24,14,10,21.30
2008,05,24,14,11,21.30
2008,05,24,14,12,21.30
2008,05,24,14,13,21.40
2008,05,24,14,14,21.40
2008,05,24,14,15,21.50
2008,05,24,14,16,21.50
2008,05,24,14,17,21.60
2008,05,24,14,18,21.80
2008,05,24,14,19,21.90
2008,05,24,14,20,22.10
2008,05,24,14,21,22.20
2008,05,24,14,22,22.30
2008,05,24,14,23,22.40
2008,05,24,14,24,22.40
2008,05,24,14,25,22.30
2008,05,24,14,26,22.30
2008,05,24,14,27,22.20
2008,05,24,14,28,22.20
2008,05,24,14,29,22.20
2008,05,24,14,30,22.10
2008,05,24,14,31,22.00
2008,05,24,14,32,21.90
2008,05,24,14,33,21.80
2008,05,24,14,34,21.80
2008,05,24,14,35,21.90
2008,05,24,14,36,22.00
2008,05,24,14,37,22.10
2008,05,24,14,38,22.10
2008,05,24,14,39,22.20
2008,05,24,14,40,22.20
2008,05,24,14,41,22.20
2008,05,24,14,42,22.10
2008,05,24,14,43,22.00
2008,05,24,14,44,21.90
2008,05,24,14,45,21.70
2008,05,24,14,46,21.60
2008,05,24,14,47,21.50
2008,05,24,14,48,21.40
2008,05,24,14,49,21.40
2008,05,24,14,50,21.50
2008,05,24,14,51,21.60
2008,05,24,14,52,21.60
2008,05,24,14,53,21.50
2008,05,24,14,54,21.50
2008,05,24,14,55,21.50
2008,05,24,14,56,21.40
2008,05,24,14,57,21.50
2008,05,24,14,58,21.60
2008,05,24,14,59,21.60
2008,05,24,15,00,21.60
2008,05,24,15,01,21.70
2008,05,24,15,02,21.70
2008,05,24,15,03,21.70
2008,05,24,15,04,21.60
2008,05,24,15,05,21.60
2008,05,24,15,06,21.50
2008,05,24,15,07,21.40
2008,05,24,15,08,21.40
2008,05,24,15,09,21.40
2008,05,24,15,10,21.50
2008,05,24,15,11,21.60
2008,05,24,15,12,21.70
2008,05,24,15,13,21.80
2008,05,24,15,14,21.80
2008,05,24,15,15,21.90
2008,05,24,15,16,21.90
2008,05,24,15,17,21.80
2008,05,24,15,18,21.60
2008,05,24,15,19,21.50
2008,05,24,15,20,21.40
2008,05,24,15,21,21.30
2008,05,24,15,22,21.30
2008,05,24,15,23,21.30
2008,05,24,15,24,21.30
2008,05,24,15,25,21.30
2008,05,24,15,26,21.40
2008,05,24,15,27,21.40
2008,05,24,15,28,21.40
2008,05,24,15,29,21.40
2008,05,24,15,30,21.40
2008,05,24,15,31,21.40
2008,05,24,15,32,21.40
2008,05,24,15,33,21.40
2008,05,24,15,34,21.40
2008,05,24,15,35,21.50
2008,05,24,15,36,21.60
2008,05,24,15,37,21.60
2008,05,24,15,38,21.70
2008,05,24,15,39,21.80
2008,05,24,15,40,21.90
2008,05,24,15,41,22.00
2008,05,24,15,42,22.20
2008,05,24,15,43,22.30
2008,05,24,15,44,22.30
2008,05,24,15,45,22.40
2008,05,24,15,46,22.40
2008,05,24,15,47,22.40
2008,05,24,15,48,22.40
2008,05,24,15,49,22.40
2008,05,24,15,50,22.40
2008,05,24,15,51,22.30
2008,05,24,15,52,22.10
2008,05,24,15,53,22.00
2008,05,24,15,54,21.80
2008,05,24,15,55,21.60
2008,05,24,15,56,21.50
2008,05,24,15,57,21.30
2008,05,24,15,58,21.30
2008,05,24,15,59,21.30
2008,05,24,16,00,21.30
2008,05,24,16,01,21.30
2008,05,24,16,02,21.40
2008,05,24,16,03,21.50
2008,05,24,16,04,21.70
2008,05,24,16,05,21.80
2008,05,24,16,06,22.00
2008,05,24,16,07,22.10
2008,05,24,16,08,22.20
2008,05,24,16,09,22.30
2008,05,24,16,10,22.30
2008,05,24,16,11,22.30
2008,05,24,16,12,22.30
2008,05,24,16,13,22.30
2008,05,24,16,14,22.20
2008,05,24,16,15,22.10
2008,05,24,16,16,22.10
2008,05,24,16,17,22.10
2008,05,24,16,18,22.10
2008,05,24,16,19,22.10
2008,05,24,16,20,22.10
2008,05,24,16,21,22.10
2008,05,24,16,22,22.20
2008,05,24,16,23,22.20
2008,05,24,16,24,22.20
2008,05,24,16,25,22.30
2008,05,24,16,26,22.30
2008,05,24,16,27,22.30
2008,05,24,16,28,22.40
2008,05,24,16,29,22.40
2008,05,24,16,30,22.50
2008,05,24,16,31,22.50
2008,05,24,16,32,22.60
2008,05,24,16,33,22.70
2008,05,24,16,34,22.80
2008,05,24,16,35,22.80
2008,05,24,16,36,22.90
2008,05,24,16,37,22.70
2008,05,24,16,38,22.60
2008,05,24,16,39,22.40
2008,05,24,16,40,22.20
2008,05,24,16,41,22.10
2008,05,24,16,42,21.90
2008,05,24,16,43,21.90
2008,05,24,16,44,21.80
2008,05,24,16,45,21.90
2008,05,24,16,46,22.00
2008,05,24,16,47,22.00
2008,05,24,16,48,22.10
2008,05,24,16,49,22.10
2008,05,24,16,50,22.20
2008,05,24,16,51,22.10
2008,05,24,16,52,22.00
2008,05,24,16,53,21.80
2008,05,24,16,54,21.70
2008,05,24,16,55,21.60
2008,05,24,16,56,21.60
2008,05,24,16,57,21.50
2008,05,24,16,58,21.40
2008,05,24,16,59,21.30
2008,05,24,17,00,21.30
2008,05,24,17,01,21.20
2008,05,24,17,02,21.20
2008,05,24,17,03,21.20
2008,05,24,17,04,21.10
2008,05,24,17,05,21.10
2008,05,24,17,06,21.10
2008,05,24,17,07,21.20
2008,05,24,17,08,21.20
2008,05,24,17,09,21.20
2008,05,24,17,10,21.20
2008,05,24,17,11,21.20
2008,05,24,17,12,21.10
2008,05,24,17,13,21.10
2008,05,24,17,14,21.10
2008,05,24,17,15,21.10
2008,05,24,17,16,21.00
2008,05,24,17,17,21.00
2008,05,24,17,18,20.90
2008,05,24,17,19,20.90
2008,05,24,17,20,20.90
2008,05,24,17,21,20.80
2008,05,24,17,22,20.70
2008,05,24,17,23,20.70
2008,05,24,17,24,20.70
2008,05,24,17,25,20.70
2008,05,24,17,26,20.70
2008,05,24,17,27,20.60
2008,05,24,17,28,20.50
2008,05,24,17,29,20.50
2008,05,24,17,30,20.40
2008,05,24,17,31,20.30
2008,05,24,17,32,20.20
2008,05,24,17,33,20.10
2008,05,24,17,34,20.00
2008,05,24,17,35,20.00
2008,05,24,17,36,19.90
2008,05,24,17,37,19.90
2008,05,24,17,38,19.90
2008,05,24,17,39,20.00
2008,05,24,17,40,20.00
2008,05,24,17,41,20.00
2008,05,24,17,42,20.00
2008,05,24,17,43,20.10
2008,05,24,17,44,20.10
2008,05,24,17,45,20.20
2008,05,24,17,46,20.20
2008,05,24,17,47,20.30
2008,05,24,17,48,20.30
2008,05,24,17,49,20.40
2008,05,24,17,50,20.40
2008,05,24,17,51,20.40
2008,05,24,17,52,20.40
2008,05,24,17,53,20.40
2008,05,24,17,54,20.30
2008,05,24,17,55,20.30
2008,05,24,17,56,20.30
2008,05,24,17,57,20.30
2008,05,24,17,58,20.30
2008,05,24,17,59,20.30
2008,05,24,18,00,20.30
2008,05,24,18,01,20.40
2008,05,24,18,02,20.40
2008,05,24,18,03,20.50
2008,05,24,18,04,20.60
2008,05,24,18,05,20.70
2008,05,24,18,06,20.90
2008,05,24,18,07,21.00
2008,05,24,18,08,21.10
2008,05,24,18,09,21.20
2008,05,24,18,10,21.30
2008,05,24,18,11,21.50
2008,05,24,18,12,21.60
2008,05,24,18,13,21.70
2008,05,24,18,14,21.80
2008,05,24,18,15,21.90
2008,05,24,18,16,22.00
2008,05,24,18,17,22.10
2008,05,24,18,18,22.20
2008,05,24,18,19,22.30
2008,05,24,18,20,22.40
2008,05,24,18,21,22.50
2008,05,24,18,22,22.60